Location: G?julap?du
(16.5372°N, 81.0979°E)
Time: 22:57:22
(UTC+00:00)

Cosmos 1933 Rocket - Pass Details

Date: 14 April 2026
Orbit: 601 x 622 km, 82.5° (Epoch: 9 May)

Event Time Altitude Azimuth Distance (km) Brightness Sun altitude
Rises 14:05:58 0° 181° (S) 2,848 6.8 -18.4°
Reaches altitude 10° 14:08:10 10° 179° (S) 1,949 5.9 -18.9°
Maximum altitude 14:12:28 77° 94° (E) 627 3.4 -19.8°
Drops below altitude 10° 14:16:49 10° 8° (N) 1,966 6.2 -20.8°
Sets 14:19:03 0° 7° (N) 2,875 7.1 -21.3°
